Date String (YYYY-MM-DD hh:mm:ss) UTC,Instrument flags,Ambient pressure (hPa),Sample flow (lpm),Bypass flow (lpm),Sample temperature (°C),Ambient temperature (°C),ASC tube jacket temperature (°C),LED temperature (°C),Box temperature (°C),Sample RH (%),Span deviation,Mass concentration (μg/m³),Mass concentration (μg/m³),Mass concentration (μg/m³)
DateTimeUTC,F1_M11,P_M11,Q1_M11,Q2_M11,T1_M11,T2_M11,T3_M11,T4_M11,T5_M11,U1_M11,ZSPAN_M11,X0_M11,X2_M11,X1_M11
2023-05-29 12:00:00,,0829.6,5.00,0.00,28.7,27.0,00.0,37.1,30.3,18.3,0000.0,0008.72,0004.04,0003.16
2023-05-29 12:01:00,,0829.7,5.02,0.00,28.7,27.0,00.0,37.1,30.3,18.4,0000.0,0008.63,0004.01,0003.16
2023-05-29 12:02:00,,0829.6,5.01,0.00,28.7,27.0,00.0,37.1,30.3,18.5,0000.0,0008.35,0003.92,0003.14
2023-05-29 12:03:00,,0829.7,5.00,0.00,28.7,26.9,00.0,37.1,30.3,18.4,0000.0,0008.24,0003.93,0003.13
2023-05-29 12:04:00,,0829.6,4.99,0.00,28.7,26.9,00.0,37.1,30.3,18.6,0000.0,0007.72,0003.92,0003.13
2023-05-29 12:05:00,,0829.7,5.01,0.00,28.7,26.9,00.0,37.1,30.3,18.7,0000.0,0007.50,0003.88,0003.13
2023-05-29 12:06:00,,0829.7,5.01,0.00,28.7,26.9,00.0,37.1,30.3,18.5,0000.0,0007.42,0003.87,0003.12
2023-05-29 12:07:00,,0829.7,5.00,0.00,28.7,26.9,00.0,37.1,30.3,18.4,0000.0,0007.39,0003.88,0003.12
2023-05-29 12:08:00,,0829.6,5.00,0.00,28.7,26.9,00.0,37.1,30.3,18.4,0000.0,0007.49,0003.91,0003.12
2023-05-29 12:09:00,,0829.6,5.00,0.00,28.7,26.9,00.0,37.1,30.3,18.3,0000.0,0007.52,0003.90,0003.11
2023-05-29 12:10:00,,0829.6,5.00,0.00,28.7,26.9,00.0,37.1,30.3,18.4,0000.0,0007.37,0003.86,0003.11
2023-05-29 12:11:00,,0829.6,5.00,0.00,28.7,26.9,00.0,37.1,30.3,18.5,0000.0,0007.24,0003.81,0003.12
2023-05-29 12:12:00,,0829.6,5.01,0.00,28.7,26.9,00.0,37.1,30.3,18.5,0000.0,0007.27,0003.86,0003.12
2023-05-29 12:13:00,,0829.6,5.00,0.00,28.7,26.9,00.0,37.1,30.2,18.7,0000.0,0007.35,0003.88,0003.12
2023-05-29 12:14:00,,0829.6,5.00,0.00,28.7,26.9,00.0,37.1,30.3,18.9,0000.0,0007.37,0003.88,0003.12
2023-05-29 12:15:00,,0829.6,5.00,0.00,28.7,26.9,00.0,37.0,30.2,18.7,0000.0,0007.34,0003.88,0003.12
2023-05-29 12:16:00,,0829.6,4.99,0.00,28.7,26.9,00.0,37.0,30.2,18.7,0000.0,0007.43,0003.91,0003.13
2023-05-29 12:17:00,,0829.6,5.00,0.00,28.7,26.9,00.0,37.0,30.2,18.6,0000.0,0007.48,0003.94,0003.14
2023-05-29 12:18:00,,0829.6,4.99,0.00,28.7,26.9,00.0,37.0,30.2,18.9,0000.0,0007.76,0003.97,0003.16
2023-05-29 12:19:00,,0829.6,4.99,0.00,28.7,26.9,00.0,37.0,30.2,18.8,0000.0,0008.47,0003.94,0003.16
2023-05-29 12:20:00,,0829.6,4.99,0.00,28.6,26.9,00.0,37.0,30.2,18.6,0000.0,0008.38,0003.94,0003.16
2023-05-29 12:21:00,,0829.6,5.00,0.00,28.6,26.9,00.0,37.0,30.2,18.7,0000.0,0008.39,0003.97,0003.16
2023-05-29 12:22:00,,0829.6,5.01,0.00,28.6,26.8,00.0,37.0,30.2,18.7,0000.0,0008.36,0003.96,0003.16
2023-05-29 12:23:00,,0829.6,5.01,0.00,28.6,26.8,00.0,37.0,30.2,19.4,0000.0,0008.31,0003.93,0003.17
2023-05-29 12:24:00,,0829.6,4.98,0.00,28.6,26.9,00.0,37.0,30.2,19.6,0000.0,0008.22,0003.89,0003.16
2023-05-29 12:25:00,,0829.6,5.01,0.00,28.6,26.9,00.0,37.0,30.2,19.2,0000.0,0008.20,0003.90,0003.17
2023-05-29 12:26:00,,0829.6,5.01,0.00,28.6,26.9,00.0,37.0,30.2,19.7,0000.0,0008.13,0003.87,0003.18
2023-05-29 12:27:00,,0829.7,5.01,0.00,28.6,26.9,00.0,37.0,30.2,20.8,0000.0,0008.04,0003.83,0003.18
2023-05-29 12:28:00,,0829.7,5.00,0.00,28.6,26.9,00.0,37.0,30.2,20.7,0000.0,0008.10,0003.85,0003.17
2023-05-29 12:29:00,,0829.7,4.99,0.00,28.6,26.9,00.0,37.0,30.2,21.2,0000.0,0007.99,0003.81,0003.17
2023-05-29 12:30:00,,0829.7,4.99,0.00,28.6,26.9,00.0,37.0,30.2,19.4,0000.0,0006.82,0003.79,0003.16
2023-05-29 12:31:00,,0829.7,5.00,0.00,28.6,26.9,00.0,37.0,30.2,19.2,0000.0,0006.88,0003.79,0003.17
2023-05-29 12:32:00,,0829.7,5.00,0.00,28.6,26.9,00.0,37.0,30.2,19.3,0000.0,0006.95,0003.78,0003.17
2023-05-29 12:33:00,,0829.7,5.00,0.00,28.6,26.9,00.0,37.0,30.2,19.5,0000.0,0007.03,0003.80,0003.16
2023-05-29 12:34:00,,0829.7,5.01,0.00,28.6,26.9,00.0,37.0,30.2,19.4,0000.0,0006.94,0003.76,0003.15
2023-05-29 12:35:00,,0829.7,5.00,0.00,28.6,26.9,00.0,37.0,30.2,20.1,0000.0,0007.12,0003.80,0003.16
2023-05-29 12:36:00,,0829.7,5.00,0.00,28.6,26.9,00.0,37.0,30.2,19.9,0000.0,0007.39,0003.84,0003.16
2023-05-29 12:37:00,,0829.7,5.01,0.00,28.6,26.9,00.0,37.0,30.2,20.3,0000.0,0007.63,0003.88,0003.15
2023-05-29 12:38:00,,0829.7,4.99,0.00,28.6,26.9,00.0,37.0,30.2,20.8,0000.0,0007.77,0003.95,0003.15
2023-05-29 12:39:00,,0829.7,4.99,0.00,28.6,26.9,00.0,37.0,30.2,19.6,0000.0,0007.71,0003.94,0003.14
2023-05-29 12:40:00,,0829.7,4.99,0.00,28.6,26.9,00.0,37.0,30.2,20.5,0000.0,0007.92,0004.01,0003.14
2023-05-29 12:41:00,,0829.7,5.00,0.00,28.6,26.9,00.0,37.0,30.2,21.5,0000.0,0007.99,0004.04,0003.14
2023-05-29 12:42:00,,0829.7,5.00,0.00,28.6,26.9,00.0,37.0,30.2,21.5,0000.0,0007.93,0004.02,0003.13
2023-05-29 12:43:00,,0829.7,5.00,0.00,28.6,26.9,00.0,37.0,30.2,20.6,0000.0,0007.85,0003.99,0003.12
2023-05-29 12:44:00,,0829.7,5.00,0.00,28.6,26.9,00.0,37.0,30.2,19.0,0000.0,0008.53,0004.02,0003.12
2023-05-29 12:45:00,,0829.7,5.00,0.00,28.6,26.9,00.0,37.0,30.2,19.2,0000.0,0008.91,0004.05,0003.12
2023-05-29 12:46:00,,0829.6,5.00,0.00,28.7,27.0,00.0,37.0,30.2,21.1,0000.0,0008.95,0004.07,0003.13
2023-05-29 12:47:00,,0829.7,4.99,0.00,28.7,27.0,00.0,37.0,30.3,21.0,0000.0,0008.85,0004.06,0003.16
2023-05-29 12:48:00,,0829.7,5.00,0.00,28.7,27.0,00.0,37.0,30.3,20.7,0000.0,0008.65,0004.05,0003.18
2023-05-29 12:49:00,,0829.7,5.00,0.00,28.7,27.0,00.0,37.0,30.3,20.6,0000.0,0008.52,0004.00,0003.19
2023-05-29 12:50:00,,0829.7,5.01,0.00,28.7,27.0,00.0,37.0,30.3,20.5,0000.0,0008.51,0004.01,0003.21
2023-05-29 12:51:00,,0829.7,5.01,0.00,28.7,27.0,00.0,37.0,30.3,19.5,0000.0,0008.47,0003.99,0003.22
2023-05-29 12:52:00,,0829.7,5.00,0.00,28.7,27.0,00.0,37.0,30.3,19.9,0000.0,0008.51,0004.02,0003.23
2023-05-29 12:53:00,,0829.7,4.99,0.00,28.7,27.0,00.0,37.0,30.3,19.8,0000.0,0008.83,0004.05,0003.24
2023-05-29 12:54:00,,0829.8,4.99,0.00,28.7,27.0,00.0,37.0,30.3,20.1,0000.0,0008.98,0004.10,0003.25
2023-05-29 12:55:00,,0829.8,4.99,0.00,28.7,27.0,00.0,37.0,30.3,20.7,0000.0,0008.46,0004.10,0003.26
2023-05-29 12:56:00,,0829.8,5.00,0.00,28.7,27.0,00.0,37.0,30.3,23.2,0000.0,0008.42,0004.14,0003.27
2023-05-29 12:57:00,,0829.8,5.01,0.00,28.7,27.1,00.0,37.0,30.3,22.6,0000.0,0008.55,0004.19,0003.27
2023-05-29 12:58:00,,0829.8,5.00,0.00,28.7,27.1,00.0,37.0,30.3,23.3,0000.0,0008.79,0004.21,0003.26
2023-05-29 12:59:00,,0829.8,5.00,0.00,28.7,27.1,00.0,37.0,30.4,23.3,0000.0,0008.87,0004.22,0003.25
